Location: Tucson
(32.2217°N, 110.9265°W)
Time: 17:39:52
(UTC-07:00)

N. Korean satellite - Pass Details

Date: 04 October 2021
Orbit: 450 x 495 km, 97.3° (Epoch: 22 October)

Event Time Altitude Azimuth Distance (km) Brightness Sun altitude
Rises 04:54:28 0° 27° (NNE) 2,561 10.7 -18.9°
Reaches altitude 10° 04:56:51 10° 43° (NE) 1,682 10.0 -18.4°
Maximum altitude 04:59:46 23° 96° (E) 1,089 9.2 -17.8°
Drops below altitude 10° 05:02:42 10° 150° (SSE) 1,682 9.6 -17.1°
Sets 05:05:04 0° 166° (SSE) 2,562 10.4 -16.6°
